Regional Weather Roundup
Issued by NWS

Home | Current Version | Previous Version | Text Only | Print | Product List | Glossary Off
Versions: 1 2 3 4 5 6 7 8 9 10 11 12 13 14 15 16 17 18 19 20 21 22 23 24 25 26 27 28 29 30 31 32 33 34 35 36 37 38 39 40 41 42 43 44 45 46 47 48 49 50

336
ASUS43 KLSX 110807
RWRMO

WEATHER SUMMARY FOR MISSOURI
NATIONAL WEATHER SERVICE SPRINGFIELD MO
200 AM CST SUN DEC 11 2016

NOTE: "FAIR" INDICATES FEW OR NO CLOUDS BELOW 12,000 FEET WITH NO
       SIGNIFICANT WEATHER AND/OR OBSTRUCTIONS TO VISIBILITY.
       CURRENT SKY AND/OR WEATHER CONDITIONS ARE NOT AVAILABLE FOR
       CHILLICOTHE AND FARMINGTON.

MOZ001>031-035>038-043-044-053-054-110900-
...NORTHERN AND WESTERN MISSOURI...

CITY           SKY/WX    TMP DP  RH WIND       PRES   REMARKS
KANSAS CTY INT CLOUDY    41  27  57 S21       29.84F
KANSAS C DTWN  CLOUDY    40  23  50 S6        29.87F
LEE`S SUMMIT   CLOUDY    38  22  52 SE12      29.88F
ST JOSEPH      CLOUDY    37  24  59 S9        29.85F
CHILLICOTHE      N/A     36  19  50 SE9       29.93F WCI  29
KIRKSVILLE     CLOUDY    33  19  56 SE12      29.98F WCI  24

$$
MOZ066>068-077>081-088>096-101>105-110900-
...SOUTHWEST MISSOURI...

CITY           SKY/WX    TMP DP  RH WIND       PRES   REMARKS
SPRINGFIELD    CLOUDY    39  23  52 S15       29.99F
JOPLIN         CLOUDY    45  27  49 S16G26    29.94F
BRANSON        CLOUDY    41  23  48 S10       30.04F

$$
MOZ032>034-039>042-045>050-055>058-069>072-110900-
...CENTRAL MISSOURI...

CITY           SKY/WX    TMP DP  RH WIND       PRES   REMARKS
COLUMBIA       CLOUDY    36  19  50 S13       30.02F WCI  27
JEFFERSON CITY CLOUDY    37  20  50 SE7       30.05F
ROLLA          CLOUDY    37  22  54 S17G24    30.03F WCI  27
SEDALIA        CLOUDY    40  21  46 S16G23    29.96F
WHITEMAN AFB   CLOUDY    40  23  51 S14       29.91F
WARRENSBURG    CLOUDY    37  21  52 SE14      29.92F WCI  29
OSAGE BEACH    CLOUDY    38  22  52 S10       30.03F

$$
MOZ051-052-059>065-110900-
...EAST CENTRAL MISSOURI...

CITY           SKY/WX    TMP DP  RH WIND       PRES   REMARKS
ST LOUIS INTL  CLOUDY    38  17  42 SE10      30.13F
SPIRIT OF STL  CLOUDY    38  18  44 SE7       30.11F
ST CHARLES     CLOUDY    36  21  54 SE9       30.11F WCI  29

$$
MOZ072>076-082>087-097>100-106>115-110900-
...SOUTH CENTRAL AND SOUTHEAST MISSOURI...

CITY           SKY/WX    TMP DP  RH WIND       PRES   REMARKS
CAPE GIRARDEAU CLOUDY    37  21  52 S9        30.22F
FARMINGTON     CLOUDY    37  17  44 S17G30    30.13F WCI  27
POPLAR BLUFF   CLOUDY    38  24  57 S8        30.21F
WEST PLAINS    CLOUDY    38  21  50 S14G21    30.10F WCI  30

$$



USA.gov is the U.S. government's official web portal to all federal, state and local government web resources and services.